FW8431 Weather Reports


Display with metric or nautical units.
time (UTC)temp
F
wind
direction
speed
MPH
gust
MPH
rain 1hr
in
rain 24hr
in
rain mn
in
humidity
%
barometer
mb
20260831001618 70 0 0.0 0.0 0.00 0.00 0.00 87 1024.9
20260831000054 71 0 0.0 0.0 0.00 0.00 0.00 87 1025.0
20260830234602 72 0 0.0 3.0 0.00 0.00 0.00 86 1024.9
20260830233106 73 0 0.0 2.0 0.00 0.00 0.00 85 1024.7
20260830231559 73 0 0.0 1.0 0.00 0.00 0.00 84 1024.7
20260830230120 74 0 0.0 2.0 0.00 0.00 0.00 84 1024.6
20260830224601 76 0 0.0 1.0 0.00 0.00 0.00 82 1024.7
20260830223055 77 0 0.0 2.0 0.00 0.00 0.00 78 1024.7
20260830221556 78 0 0.0 1.0 0.00 0.00 0.00 79 1024.7
20260830220106 78 0 0.0 2.0 0.00 0.00 0.00 74 1024.7
20260830214555 78 0 1.0 4.0 0.00 0.00 0.00 72 1024.6
20260830213102 78 355 2.0 5.0 0.00 0.00 0.00 73 1024.7
20260830211558 78 0 1.0 4.0 0.00 0.00 0.00 72 1024.6
20260830210105 78 0 0.0 3.0 0.00 0.00 0.00 79 1024.6
20260830204557 79 0 0.0 3.0 0.00 0.00 0.00 74 1024.8
20260830203102 78 0 1.0 6.0 0.00 0.00 0.00 72 1024.7
20260830201604 79 144 2.0 5.0 0.00 0.00 0.00 72 1024.7
20260830200100 79 141 2.0 7.0 0.00 0.00 0.00 71 1024.9
20260830194601 78 111 1.0 4.0 0.00 0.00 0.00 71 1024.9
20260830193102 77 136 0.0 4.0 0.00 0.00 0.00 72 1025.1
20260830191606 77 38 2.0 5.0 0.00 0.00 0.00 70 1025.3
20260830190101 78 138 3.0 8.0 0.00 0.00 0.00 69 1025.7
20260830184606 80 161 4.0 9.0 0.00 0.00 0.00 68 1025.8
20260830183106 80 47 2.0 8.0 0.00 0.00 0.00 69 1026.1
20260830181559 79 0 1.0 11.0 0.00 0.00 0.00 71 1026.2
20260830180055 79 142 2.0 10.0 0.00 0.00 0.00 71 1026.3
20260830174615 79 161 3.0 9.0 0.00 0.00 0.00 74 1026.6
20260830173059 78 63 3.0 9.0 0.00 0.00 0.00 75 1026.9
20260830171606 79 137 3.0 9.0 0.00 0.00 0.00 75 1026.9
20260830170052 79 120 2.0 8.0 0.00 0.00 0.00 73 1027.0
20260830164558 78 157 2.0 8.0 0.00 0.00 0.00 75 1027.1
20260830163107 78 76 3.0 8.0 0.00 0.00 0.00 75 1027.3
20260830161606 78 145 3.0 6.0 0.00 0.00 0.00 69 1027.1
20260830160109 77 222 2.0 5.0 0.00 0.00 0.00 76 1027.2
20260830154556 78 0 2.0 6.0 0.00 0.00 0.00 72 1027.3
20260830153105 76 146 0.0 3.0 0.00 0.00 0.00 74 1027.3
20260830151601 76 146 4.0 7.0 0.00 0.00 0.00 79 1027.3
20260830150114 75 243 1.0 5.0 0.00 0.00 0.00 84 1027.4
20260830144603 73 259 2.0 4.0 0.00 0.00 0.00 85 1027.4
20260830143100 72 0 2.0 4.0 0.00 0.00 0.00 88 1027.4
20260830141559 71 292 1.0 4.0 0.00 0.00 0.00 91 1027.3
20260830140059 69 0 0.0 3.0 0.00 0.00 0.00 92 1027.3
20260830134604 68 0 0.0 2.0 0.00 0.00 0.00 94 1027.3
20260830133102 67 318 0.0 3.0 0.00 0.00 0.00 97 1027.3
20260830131558 66 0 0.0 2.0 0.00 0.00 0.00 98 1027.5
20260830130106 64 346 1.0 2.0 0.00 0.00 0.00 98 1027.4
20260830124603 63 0 0.0 1.0 0.00 0.00 0.00 98 1027.3
20260830123100 63 0 0.0 2.0 0.00 0.00 0.00 97 1027.4
20260830121604 63 0 0.0 0.0 0.00 0.00 0.00 98 1027.3
20260830120059 62 0 0.0 0.0 0.00 0.00 0.00 97 1027.0
20260830114613 62 0 0.0 0.0 0.00 0.00 0.00 97 1027.0
20260830113103 61 0 0.0 0.0 0.00 0.00 0.00 97 1026.7
20260830111601 62 0 0.0 0.0 0.00 0.00 0.00 97 1026.7
20260830110100 62 0 0.0 0.0 0.00 0.00 0.00 97 1026.4
20260830104601 62 0 0.0 0.0 0.00 0.00 0.00 97 1026.3
20260830103100 62 0 0.0 0.0 0.00 0.00 0.00 97 1026.2
20260830101556 62 0 0.0 0.0 0.00 0.00 0.00 97 1026.2
20260830100055 63 0 0.0 0.0 0.00 0.00 0.00 97 1026.2
20260830094604 62 0 0.0 0.0 0.00 0.00 0.00 97 1026.1
20260830093058 62 0 0.0 1.0 0.00 0.00 0.00 96 1026.0
20260830091557 62 0 0.0 2.0 0.00 0.00 0.00 96 1026.0
20260830090113 63 0 0.0 1.0 0.00 0.00 0.00 96 1026.2
20260830084558 63 0 0.0 1.0 0.00 0.00 0.00 96 1026.1
20260830083055 63 0 0.0 1.0 0.00 0.00 0.00 95 1026.1
20260830081604 63 0 0.0 1.0 0.00 0.00 0.00 95 1026.2
20260830074602 64 0 0.0 1.0 0.00 0.00 0.00 94 1026.1
20260830073057 64 0 0.0 0.0 0.00 0.00 0.00 93 1026.3
20260830071558 65 0 0.0 0.0 0.00 0.00 0.00 93 1026.1
20260830070105 65 0 0.0 1.0 0.00 0.00 0.00 92 1026.1
20260830064601 66 0 0.0 1.0 0.00 0.00 0.00 92 1026.2
20260830063111 66 0 0.0 0.0 0.00 0.00 0.00 91 1026.3
20260830061601 67 0 0.0 1.0 0.00 0.00 0.00 91 1026.4
20260830054604 68 0 0.0 0.0 0.00 0.00 0.00 90 1026.6
20260830053100 69 0 0.0 1.0 0.00 0.00 0.00 90 1026.7
20260830051602 69 0 0.0 1.0 0.00 0.00 0.00 88 1026.6
20260830050053 70 0 0.0 4.0 0.00 0.00 0.00 87 1026.6
20260830044608 71 71 1.0 2.0 0.00 0.00 0.00 86 1026.6
20260830043059 71 71 2.0 6.0 0.00 0.00 0.00 84 1026.7
20260830041635 71 0 0.0 5.0 0.00 0.00 0.00 85 1027.0
20260830040108 71 0 0.0 4.0 0.00 0.00 0.00 85 1027.0
20260830034620 70 232 0.0 3.0 0.00 0.00 0.00 87 1027.0
20260830033100 69 255 0.0 3.0 0.00 0.00 0.00 88 1027.2
20260830031556 69 176 0.0 4.0 0.00 0.00 0.00 87 1027.1
20260830030105 70 134 0.0 3.0 0.00 0.00 0.00 86 1027.0
20260830024557 70 0 0.0 3.0 0.00 0.00 0.00 86 1027.0
20260830023058 70 133 1.0 5.0 0.00 0.00 0.00 85 1027.0
20260830021619 71 139 1.0 8.0 0.00 0.00 0.00 83 1026.7
20260830020111 70 57 0.0 8.0 0.00 0.00 0.00 85 1026.4
20260830014615 70 272 0.0 4.0 0.00 0.00 0.00 86 1026.5
20260830013108 70 78 0.0 9.0 0.00 0.00 0.00 85 1025.9
20260830011557 69 355 0.0 3.0 0.00 0.00 0.00 86 1025.7
20260830010107 69 0 1.0 4.0 0.00 0.00 0.00 87 1025.2
20260830004600 69 0 0.0 5.0 0.00 0.05 0.00 87 1025.0
20260830003101 69 0 0.0 3.0 0.00 0.05 0.00 87 1025.0